Location: Newark
(46.2144°N, 13.6425°E)
Time: 04:27:20
(UTC+00:00)

Envisat - Visible Passes

Search period start: 22 August 2019 00:00
Search period end: 01 September 2019 00:00
Orbit: 764 x 766 km, 98.1° (Epoch: 21 August)

Date Brightness Start Highest point End Pass type
(mag) Time Alt. Az. Time Alt. Az. Time Alt. Az.
23 Aug 5.7 18:25:15 10° SW 18:29:08 22° W 18:33:02 10° NW visible
25 Aug 6.1 18:52:45 10° WSW 18:54:58 13° W 18:57:11 10° WNW visible
28 Aug 5.9 18:40:28 10° SW 18:43:34 16° W 18:46:41 10° NW visible
31 Aug 5.8 18:28:30 10° SW 18:32:11 20° W 18:35:54 10° NW visible
